Volver al catálogo

STARLINK-30154

ActivoComunicacionesVLEO
NORAD 57495·PAYLOAD·🇺🇸 United States

Lanzado Aug 7, 2023 desde Cape Canaveral Space Force Station

Loading…

Próximos Pases (próximas 24 horas)

TLE

ActualizadoSource: CelesTrak SupGP

Época: Sep 15, 2026, 02:24 UTC

1 57495C 23113A   26258.10048611 -.00011622  00000+0 -42091-3 0  2584
2 57495  43.0047  26.1977 0002203 269.1084 143.0599 15.27587184    19

Sigue STARLINK-30154 en tiempo real con AllMySat

Download on the App Store